Probability
0 0 0 0 0 0 0 0 0 0 0 0 0 0 0 0 0 0 0 0 0 0 0 0 0 0 0 0 0 0 0 0 0 0 0 0 0 0 0 0 0 0 0
0 0 0 0 0 0 0 0 0 0 0 0 0 0 0 0 0 0 0 0 0 0 0 0 0 0 0 0 0 0 0 0 0 0 0 0 0 0 0 0 0 0 0
0 0 0 0 0 0 0 0 0 0 0 0 0 0 0 0 0 0 0 0 0 0 0 0 0 0 0 0 0 0 0 0 0 0 0 0 0 0 0 0 0 0 0
0 0 0 0 0 0 0 0 0 0 0 0 0 0 0 0 0 0 0 0 0 0 0 0 0 0 0 0 0 0 0 0 0 0 0 0 0 0 0 0 0 0 0
0 0 0 0 0 0 0 0 0 0 0 0 0 0 0 0 0 0 0 0 0 0 0 0 0 0 0 0 0 0 0 0 0 0 0 0 0 0 0 0 0 0 0
0 0 0 0 0 0 0 0 0 0 0 0 0 0 0 0 0 0 0 0 0 0 0 0 0 0 0 0 0 0 0 0 0 0 0 0 0 0 0 0 0 0 0
0 0 0 0 0 0 0 0 0 0 0 0 0 0 0 0 0 0 0 0 0 0 0 0 0 0 0 0 0 0 0 0 0 0 0 0 0 0 0 0 0 0 0
0 0 0 0 0 0 0 0 0 0 0 0 0 0 0 0 0 0 0 0 0 0 0 0 0 0 0 0 0 0 0 0 0 0 0 0 0 0 0 0 0 0 0
0 0 0 0 0 0 0 0 0 0 0 0 0 0 0 0 0 0 0 0 0 0 0 0 0 0 0 0 0 0 0 0 0 0 0 0 0 0 0 0 0 0 0
0 0 0 0 0 0 0 0 0 0 0 0 0 0 0 0 0 0 0 0 0 0 0 0 0 0 0 0 0 0 0 0 0 0 0 0 0 0 0 0 0 0 0
0 0 0 0 0 0 0 0 0 0 0 0 0 0 0 0 0 0 0 0 0 0 0 0 0 0 0 0 0 0 0 0 0 0 0 0 0 0 0 0 0 0 0
0 0 0 0 0 0 0 0 0 0 0 0 0 0 0 0 0 0 0 0 0 0 0 0 0 0 0 0 0 0 0 0 0 0 0 0 0 0 0 0 0 0 0
0 0 0 0 0 0 0 0 0 0 0 0 0 0 0 0 0 0 0 0 0 0 0 0 0 0 0 0 0 0 0 0 0 0 0 0 0 0 0 0 0 0 0
0 0 0 0 0 0 0 0 0 0 0 0 0 0 0 0 0 0 0 0 0 0 0 0 0 0 0 0 0 0 0 0 0 0 0 0 0 0 0 0 0 0 0
0 0 0 0 0 0 0 0 0 0 0 0 0 0 0 0 0 0 0 0 0 0 0 0 0 0 0 0 0 0 0 0 0 0 0 0 0 0 0 0 0 0 0
0 0 0 0 0 0 0 0 0 0 0 0 0 0 0 0 0 0 0 0 0 0 0 0 0 0 0 0 0 0 0 0 0 0 0 0 0 0 0 0 0 0 0
0 0 0 0 0 0 0 0 0 0 0 0 0 0 0 0 0 0 0 0 0 0 0 0 0 0 0 0 0 0 0 0 0 0 0 0 0 0 0 0 0 0 0
0 0 0 0 0 0 0 0 0 0 0 0 0 0 0 0 0 0 0 0 0 0 0 0 0 0 0 0 0 0 0 0 0 0 0 0 0 0 0 0 0 0 0
0 0 0 0 0 0 0 0 0 0 0 0 0 0 0 0 0 0 0 0 0 0 0 0 0 0 0 0 0 0 0 0 0 0 0 0 0 0 0 0 0 0 0
0 0 0 0 0 0 0 0 0 0 0 0 0 0 0 0 0 0 0 0 0 0 0 0 0 0 0 0 0 0 0 0 0 0 0 0 0 0 0 0 0 0 0
0 0 0 0 0 0 0 0 0 0 0 0 0 0 0 0 0 0 0 0 0 0 0 0 0 0 0 0 0 0 0 0 0 0 0 0 0 0 0 0 0 0 0
0 0 0 0 0 0 0 0 0 0 0 0 0 0 0 0 0 0 0 0 0 0 0 0 0 0 0 0 0 0 0 0 0 0 0 0 0 0 0 0 0 0 0
0 0 0 0 0 0 0 0 0 0 0 0 0 0 0 0 0 0 0 0 0 0 0 0 0 0 0 0 0 0 0 0 0 0 0 0 0 0 0 0 0 0 0
0 0 0 0 0 0 0 0 0 0 0 0 0 0 0 0 0 0 0 0 0 0 0 0 0 0 0 0 0 0 0 0 0 0 0 0 0 0 0 0 0 0 0
0 0 0 0 0 0 0 0 0 0 0 0 0 0 0 0 0 0 0 0 0 0 0 0 0 0 0 0 0 0 0 0 0 0 0 0 0 0 0 0 0 0 0
0 0 0 0 0 0 0 0 0 0 0 0 0 0 0 0 0 0 0 0 0 0 0 0 0 0 0 0 0 0 0 0 0 0 0 0 0 0 0 0 0 0 0
Wind_Speed
12 12 12 12 12 11 11 10 9 8 7 7 7 7 7 7 6 5 6 6 7 6 6 6 6 6 5 4 4 4 5 4 3 3 3 3 2 0 1 3 4 3 5
11 12 12 11 11 11 11 9 8 7 7 6 6 6 7 6 5 5 6 6 6 6 6 6 6 5 6 5 4 4 3 3 3 3 1 1 1 1 1 3 3 1 2
11 11 11 11 10 10 9 8 7 7 6 6 5 5 6 5 5 5 5 6 6 6 6 6 6 6 6 5 5 5 4 4 3 2 1 0 0 1 2 3 3 2 3
11 11 11 10 9 8 8 7 6 6 5 5 5 5 6 7 7 6 6 6 6 6 6 7 7 7 6 6 5 6 5 4 3 2 2 2 2 3 3 3 3 2 3
10 11 10 8 7 7 6 6 5 5 6 5 6 7 8 9 9 9 4 6 5 5 5 6 6 6 5 4 5 4 5 4 4 4 3 3 3 3 4 3 3 3 3
10 10 9 8 7 6 6 5 5 5 6 7 8 9 9 8 10 13 10 5 4 4 3 3 5 3 2 1 1 2 3 3 4 4 3 4 4 4 3 4 3 4 3
9 9 8 7 7 6 7 6 6 6 6 7 7 8 8 8 11 12 12 6 3 4 4 4 5 8 7 6 4 4 5 5 3 2 3 4 3 3 4 4 4 4 4
8 8 7 7 7 6 6 6 5 4 5 5 6 7 6 7 10 11 12 4 2 3 4 5 6 7 7 7 7 4 2 2 4 4 2 3 3 3 3 4 5 5 4
8 7 7 7 7 6 6 5 4 4 4 5 6 6 6 5 8 9 10 4 1 3 5 7 6 6 7 9 6 5 5 5 2 3 5 7 8 8 4 3 4 4 4
8 7 7 6 6 6 5 4 4 3 4 5 6 6 6 5 6 8 10 3 2 3 5 6 8 6 6 8 5 5 5 5 6 6 6 7 7 7 7 5 3 3 3
8 7 6 5 5 5 4 3 3 3 4 5 6 6 5 5 4 6 9 5 5 3 3 4 3 3 4 5 5 3 3 5 6 6 4 3 2 1 2 4 4 2 1
7 6 5 4 5 6 4 3 3 3 4 4 4 5 4 4 3 3 5 6 6 4 4 3 2 1 4 6 5 6 9 8 5 3 2 2 2 2 2 2 3 3 3
7 6 5 6 5 4 3 3 2 2 2 3 3 4 4 4 2 1 3 5 6 4 3 3 4 5 6 6 7 9 8 5 3 3 3 3 2 2 3 3 3 3 4
7 6 5 4 4 4 3 3 4 4 3 3 3 3 4 4 4 4 3 2 2 2 4 5 7 9 8 8 7 5 5 2 1 3 3 3 3 3 3 2 2 2 2
6 5 4 5 6 6 7 6 7 7 6 5 5 5 4 5 3 3 4 5 5 5 6 5 3 2 2 1 2 1 2 2 2 3 3 3 3 3 3 3 3 3 2
5 4 4 4 4 5 6 6 10 7 8 10 9 6 5 4 1 3 5 7 7 7 6 4 2 3 3 3 3 3 3 3 3 3 3 3 3 3 3 3 3 3 3
4 3 3 3 3 4 4 5 5 4 4 5 5 5 4 1 1 3 6 9 11 7 4 3 2 2 3 3 3 3 3 3 2 3 3 3 4 4 4 4 4 3 3
5 4 2 2 2 3 3 4 5 5 4 3 2 2 2 2 4 6 6 7 6 4 2 1 2 2 3 3 3 3 3 3 3 3 3 3 3 4 4 4 4 4 4
3 3 2 2 2 2 2 3 4 4 4 4 5 4 5 6 7 9 6 5 4 2 3 3 3 3 3 3 2 2 3 2 3 3 3 3 3 4 4 4 4 6 5
3 3 1 1 2 2 2 2 3 3 3 3 3 3 4 5 5 5 4 2 2 3 4 4 3 2 2 3 3 4 4 3 4 4 4 4 4 4 4 5 4 4 4
6 6 4 3 2 3 2 2 2 2 3 3 3 3 0 3 2 1 1 2 3 3 4 4 4 3 4 4 4 5 5 4 5 5 6 5 5 5 4 4 5 4 4
5 6 5 3 3 2 2 2 2 2 3 3 4 5 4 4 1 2 3 3 3 3 3 2 4 4 5 5 4 4 5 6 6 6 7 7 6 6 5 5 4 4 4
4 5 4 4 3 3 3 2 2 2 2 1 2 3 3 1 2 3 3 2 2 2 2 2 3 4 4 3 3 5 6 5 5 6 6 7 8 7 6 5 6 6 4
5 5 5 5 4 4 4 3 3 3 3 2 1 1 2 2 2 2 1 2 2 2 2 2 2 4 4 3 3 6 5 4 5 6 8 8 9 8 6 6 6 6 5
5 5 5 4 4 4 3 3 2 2 2 2 1 1 1 1 2 2 2 2 1 1 2 2 2 3 4 6 6 5 3 4 4 5 7 7 9 9 7 7 6 5 4
5 6 5 5 4 4 3 4 3 3 2 2 2 1 0 0 1 2 2 1 0 1 2 2 3 3 3 5 6 4 3 4 6 6 6 7 8 6 6 6 8 6 6
Wind_Direction
76 78 79 80 81 82 83 84 86 89 89 88 85 83 81 76 73 77 83 77 74 72 75 74 62 38 27 29 33 40 36 41 68 82 106 135 157 278 229 278 275 202 190
81 83 83 84 85 85 84 82 81 80 79 79 81 84 85 82 73 73 79 77 76 72 66 62 59 56 45 32 28 49 50 39 43 49 69 122 182 189 253 279 295 358 198
86 86 85 84 85 86 86 86 84 81 78 76 78 82 87 89 84 80 79 77 75 71 66 64 59 51 41 29 32 29 26 34 23 360 21 61 323 26 325 311 325 314 298
88 87 84 83 82 83 82 81 83 84 81 78 75 71 68 60 52 53 74 74 74 74 70 66 58 52 35 7 35 28 22 7 356 352 7 28 29 5 355 339 344 333 320
94 91 89 88 87 86 85 82 81 86 87 79 76 68 66 57 37 25 36 80 80 83 85 90 87 83 62 30 39 21 15 6 11 16 18 30 23 11 5 343 351 339 333
101 100 100 98 96 96 95 90 84 78 75 73 69 65 60 53 30 29 26 35 69 78 84 99 126 120 144 214 321 339 359 11 18 5 12 18 17 13 355 344 352 347 334
108 109 107 104 100 100 103 97 89 84 85 85 85 83 74 47 29 23 16 357 47 61 49 37 66 65 36 17 335 265 254 242 249 343 349 352 354 9 353 338 335 324 300
116 115 115 110 104 98 93 94 92 90 90 92 94 94 84 54 30 19 359 338 75 82 68 55 69 61 32 6 338 352 358 204 219 226 306 324 337 345 332 313 306 309 300
117 114 111 110 110 108 103 100 99 100 103 101 99 100 93 68 31 18 0 324 92 96 84 54 57 73 30 6 354 9 20 10 347 292 281 282 285 282 276 311 320 340 335
119 116 115 114 113 111 110 108 105 105 106 102 99 97 94 81 35 21 0 350 63 90 103 94 66 55 30 16 2 2 13 355 338 322 294 276 263 260 240 223 269 321 331
122 120 116 115 113 105 100 101 106 98 94 98 104 101 94 94 71 33 25 21 12 29 100 105 82 42 18 358 337 331 338 310 299 294 292 293 289 271 213 211 223 238 297
119 117 115 114 106 101 102 104 109 116 120 120 124 123 119 113 78 50 26 26 5 12 48 65 95 338 326 316 313 314 318 313 289 301 328 338 338 346 329 300 274 256 237
118 110 101 94 94 105 119 124 117 113 120 121 129 129 127 124 111 17 328 335 348 358 6 336 298 278 293 282 256 280 300 300 329 344 337 328 320 309 297 293 296 284 280
117 111 109 111 106 84 57 59 53 43 50 73 71 90 98 81 56 26 354 354 330 352 333 294 267 265 267 279 285 256 250 268 325 312 318 319 318 319 319 319 319 312 307
126 128 127 114 99 85 68 51 61 52 44 45 44 51 60 75 51 18 7 11 2 5 330 301 275 269 259 264 307 315 306 360 12 346 334 329 332 336 329 322 317 318 324
131 134 130 128 127 127 117 92 61 80 77 72 66 65 77 88 113 353 347 336 330 339 331 310 347 1 1 2 354 355 8 32 10 335 329 335 334 330 326 326 328 332 328
126 121 122 124 130 134 136 135 131 105 72 71 70 68 77 116 306 314 322 322 309 311 297 298 14 14 1 357 360 5 6 5 343 323 334 341 335 329 328 329 331 333 330
136 124 125 128 132 133 142 146 149 153 154 152 159 196 223 257 279 288 305 314 290 246 250 347 25 19 11 1 3 10 355 344 350 340 335 335 330 327 327 328 325 328 323
146 140 143 138 143 137 143 141 144 150 151 157 160 186 226 243 266 274 287 278 301 21 26 30 34 24 5 352 360 3 348 339 351 333 332 340 333 328 327 326 322 325 314
121 104 127 173 145 139 147 136 135 146 150 157 172 174 180 213 229 229 221 265 359 40 31 13 4 9 15 8 12 7 357 360 4 358 355 346 335 329 326 321 316 317 317
163 155 186 208 170 152 155 149 144 148 147 147 120 96 357 280 249 121 90 62 50 45 49 356 335 21 35 28 21 356 357 16 18 7 353 340 332 327 318 313 315 320 326
171 167 178 174 156 138 145 163 158 146 145 150 151 171 209 258 287 64 65 65 62 57 65 13 352 31 44 25 5 358 19 25 13 2 344 332 328 324 320 320 323 323 325
170 161 154 156 144 140 197 182 160 160 166 185 183 173 172 223 60 72 72 75 77 70 57 32 22 44 39 21 10 39 36 19 354 339 332 328 326 320 319 324 326 330 338
176 166 162 161 165 176 181 178 187 179 172 173 205 132 118 118 84 78 67 76 70 72 68 58 53 53 45 32 47 64 49 14 342 332 332 318 312 313 321 325 324 334 340
188 168 166 166 174 178 177 186 187 189 186 187 200 183 141 137 141 139 120 114 122 109 90 84 70 60 48 55 63 60 39 4 349 333 317 307 309 315 325 328 329 333 344
188 169 172 171 183 187 186 193 196 206 208 202 190 168 205 214 137 114 117 115 130 131 124 115 107 92 82 87 83 74 28 351 339 327 310 297 299 310 330 327 336 344 351